CZ-6A DEB, 61476

Orbit data source: Space-Track

CZ-6A DEB, 61476 is space debris in LEO originally from a launch on Tue, 06 Aug 2024 UTC launched from the Taiyaun Space Center, China (TSC). Debris objects in space refer to the collection of defunct objects orbiting the Earth. Examples of debris include non-operational satellites, rocket bodies, and fragments generated from explosions, collisions, or faulty payload assembly.

Loading next visibility...
Identifier
61476, 2024-140AAJ
Orbit
LEO
Country
Flag of CNCN / PRC
Related business
Manufacturer
SAST
Mission
Spacecraft
Bus & Motor
Unknown
Mass
Unknown
Launch date (UTC)
2024-08-06 (1 year ago)
Launch vehicle
Unknown
Launch site
Taiyaun Space Center, China (TSC)
Object type
Payload
Rocket body
Debris
Shape & HBR
Unknown
Radar Cross Section
Small (<0.1 m²)

Expand to show TLE details & history
Last TLE update: 18 hours ago

TLE from 18 hours ago
0 CZ-6A DEB
1 61476U 24140AAJ 25261.08546941  .00000202  00000-0  10941-3 0  9990
2 61476  88.9862 305.7581 0107522  13.8112 346.5970 14.05699166 53233
Epoch: 2025-09-18T02:03Z
TLE epoch observation values (Epoch: 2025-09-18T02:03:04.557Z)
Latitude
-0°
Longitude
-82.26301°
Altitude
801.335 km
Speed
7.492 km/s
True Right ascension
20h 23m 01s
True Declination
0° 00' 00"
Sunlit
Object was in full shadow at epoch
Visualization orbit readout
Latitude
Unknown
Longitude
Unknown
Altitude
Unknown
Speed
Unknown
Apparent Right ascension
Unknown
Apparent Declination
Unknown
Sunlit
N/A
Visualization observer readout
Local Sidereal Time
13:00:26
Azimuth
Unknown
Elevation
Unknown
Doppler factor
Unknown
Orbital elements
Apogee altitude
949.043 km
Perigee altitude
793.153 km
Semi-major axis
7,249.235 km
Eccentricity
0.01075
Inclination
88.9862°
RAAN
305.7581°
Arg. of periapsis
13.8112°
True anomaly
346.30762°
Mean anomaly
346.597°
Eccentric anomaly
346.45269°
Mean motion
3.51645 °/min
Orbital period
102.38 mins
BSTAR
0.00010941
Loading maneuver chart data...
Computing Atmospheric mass density...
Loading historical data...
Loading historical data...
Loading historical data...
Loading historical data...
Loading historical data...
Loading historical data...
Loading historical data...

Documentation

Showing up to 5 results
|